Tracking 19709 objects as of 18-Jun-2019
HD Live streaming from Space Station
objects crossing your sky now

TRANSIT 11 DEB

Track TRANSIT 11 DEB now!
10-day predictions


NORAD ID: 11991
Int'l Code: 1966-005H
Perigee: 836.1 km
Apogee: 1,098.9 km
Inclination: 90.2 °
Period: 104.3 minutes
Semi major axis: 7338 km
RCS: 0.2272 m2 (medium)
Launch date: January 28, 1966
Source: United States (US)
Launch site: AIR FORCE WESTERN TEST RANGE (AFWTR)

Note: This is SATELLITE DEBRIS
aabbcc
Your satellite tracking list
Your tracking list is empty




NASA's NSSDC Master Catalog

Two Line Element Set (TLE):
1 11991U 66005H   19168.85428626 +.00000260 +00000-0 +21117-3 0  9997
2 11991 090.2325 287.3598 0179069 230.1835 248.5567 13.81002413668246
Source of the keplerian elements: AFSPC